5PO YCTM-YCBB

Flight info

Callsign 5PO
Flight time 1h 14m
Altitude 7000
Route DCT ASUMU W431 METUV W654 VIRUR DCT AKNEV DCT MUDGI W192 ANBAN DCT
Aircraft SR22/L-SDGRY/S

Departure

Time 2026-05-07 06:31
Airport Cootamundra Airport (YCTM)

Arrival

Time 2026-05-07 07:45
Airport Coonabarabran Airport (YCBB)
Time Latitude Longitude Altitude Speed Heading
2026-05-07 06:31 -34.58089 148.08095 5996 ft 136 kts 355°
2026-05-07 06:31 -34.57137 148.08185 6379 ft 138 kts 355°
2026-05-07 06:31 -34.56175 148.08269 6746 ft 139 kts 355°
2026-05-07 06:32 -34.55200 148.08342 7006 ft 151 kts 353°
2026-05-07 06:32 -34.54067 148.08273 7026 ft 174 kts 348°
2026-05-07 06:32 -34.52788 148.08375 7023 ft 196 kts 12°
2026-05-07 06:32 -34.51493 148.09054 7022 ft 207 kts 25°
2026-05-07 06:33 -34.50184 148.09835 7018 ft 212 kts 23°
2026-05-07 06:33 -34.48831 148.10570 7018 ft 214 kts 22°
2026-05-07 06:33 -34.47459 148.11297 7014 ft 216 kts 22°
2026-05-07 06:33 -34.46095 148.12031 7015 ft 217 kts 22°
2026-05-07 06:34 -34.44708 148.12780 7013 ft 218 kts 22°
2026-05-07 06:34 -34.43319 148.13524 7011 ft 219 kts 22°
2026-05-07 06:34 -34.41926 148.14274 7012 ft 219 kts 22°
2026-05-07 06:34 -34.40535 148.15023 7014 ft 217 kts 22°
2026-05-07 06:35 -34.39160 148.15766 7010 ft 215 kts 22°
2026-05-07 06:35 -34.37796 148.16496 7008 ft 214 kts 22°
2026-05-07 06:35 -34.36455 148.17216 7006 ft 213 kts 22°
2026-05-07 06:35 -34.35096 148.17943 7005 ft 214 kts 22°
2026-05-07 06:36 -34.33738 148.18674 7006 ft 213 kts 22°
2026-05-07 06:36 -34.32384 148.19398 7001 ft 212 kts 22°
2026-05-07 06:36 -34.31036 148.20123 6999 ft 212 kts 22°
2026-05-07 06:36 -34.29687 148.20846 7001 ft 211 kts 22°
2026-05-07 06:37 -34.28340 148.21567 6999 ft 211 kts 22°
2026-05-07 06:37 -34.26998 148.22287 6999 ft 211 kts 22°
2026-05-07 06:37 -34.25675 148.22998 7003 ft 210 kts 22°
2026-05-07 06:37 -34.24331 148.23717 7001 ft 211 kts 22°
2026-05-07 06:38 -34.22993 148.24448 7000 ft 211 kts 26°
2026-05-07 06:38 -34.21846 148.25543 7001 ft 211 kts 45°
2026-05-07 06:38 -34.20759 148.26732 7005 ft 211 kts 42°
2026-05-07 06:38 -34.19652 148.27899 7005 ft 211 kts 42°
2026-05-07 06:39 -34.18550 148.29075 7004 ft 211 kts 43°
2026-05-07 06:39 -34.17464 148.30238 7003 ft 212 kts 42°
2026-05-07 06:39 -34.16365 148.31414 7002 ft 211 kts 43°
2026-05-07 06:39 -34.15263 148.32591 7004 ft 211 kts 43°
2026-05-07 06:40 -34.14159 148.33769 7005 ft 211 kts 43°
2026-05-07 06:40 -34.13057 148.34944 7004 ft 212 kts 43°
2026-05-07 06:40 -34.11952 148.36124 7008 ft 213 kts 43°
2026-05-07 06:40 -34.10846 148.37305 7005 ft 213 kts 43°
2026-05-07 06:41 -34.09736 148.38492 7004 ft 213 kts 43°
2026-05-07 06:41 -34.08642 148.39660 7006 ft 212 kts 43°
2026-05-07 06:41 -34.07535 148.40843 7007 ft 213 kts 42°
2026-05-07 06:41 -34.06425 148.42026 7006 ft 213 kts 43°
2026-05-07 06:42 -34.05311 148.43212 7008 ft 214 kts 43°
2026-05-07 06:42 -34.04200 148.44394 7007 ft 212 kts 42°
2026-05-07 06:42 -34.03092 148.45573 7004 ft 212 kts 43°
2026-05-07 06:42 -34.01985 148.46755 7006 ft 212 kts 42°
2026-05-07 06:43 -34.00872 148.47937 7006 ft 213 kts 42°
2026-05-07 06:43 -33.99758 148.49119 7008 ft 213 kts 42°
2026-05-07 06:43 -33.98646 148.50302 7007 ft 213 kts 43°
2026-05-07 06:43 -33.97543 148.51476 7009 ft 213 kts 42°
2026-05-07 06:44 -33.96428 148.52662 7011 ft 214 kts 42°
2026-05-07 06:44 -33.95313 148.53851 7008 ft 213 kts 43°
2026-05-07 06:44 -33.94200 148.55027 7000 ft 212 kts 42°
2026-05-07 06:44 -33.93096 148.56197 7003 ft 211 kts 42°
2026-05-07 06:45 -33.91993 148.57368 7006 ft 211 kts 42°
2026-05-07 06:45 -33.90904 148.58524 7007 ft 211 kts 42°
2026-05-07 06:45 -33.89800 148.59695 7008 ft 211 kts 42°
2026-05-07 06:45 -33.88697 148.60869 7004 ft 211 kts 42°
2026-05-07 06:46 -33.87594 148.62036 7006 ft 211 kts 42°
2026-05-07 06:46 -33.86492 148.63200 7006 ft 211 kts 42°
2026-05-07 06:46 -33.85393 148.64364 7009 ft 211 kts 42°
2026-05-07 06:46 -33.84293 148.65527 7007 ft 211 kts 42°
2026-05-07 06:47 -33.83182 148.66675 7005 ft 210 kts 40°
2026-05-07 06:47 -33.82064 148.67811 7006 ft 210 kts 41°
2026-05-07 06:47 -33.80947 148.68957 7008 ft 211 kts 41°
2026-05-07 06:47 -33.79842 148.70091 7008 ft 211 kts 41°
2026-05-07 06:48 -33.78727 148.71236 7010 ft 211 kts 41°
2026-05-07 06:48 -33.77610 148.72383 7010 ft 211 kts 41°
2026-05-07 06:48 -33.76490 148.73529 7011 ft 211 kts 41°
2026-05-07 06:48 -33.75370 148.74679 7010 ft 211 kts 41°
2026-05-07 06:49 -33.74250 148.75825 7009 ft 211 kts 40°
2026-05-07 06:49 -33.73144 148.76958 7010 ft 211 kts 41°
2026-05-07 06:49 -33.72023 148.78106 7014 ft 211 kts 41°
2026-05-07 06:49 -33.70902 148.79252 7013 ft 212 kts 40°
2026-05-07 06:50 -33.69779 148.80402 7016 ft 212 kts 40°
2026-05-07 06:50 -33.68655 148.81554 7013 ft 212 kts 40°
2026-05-07 06:50 -33.67530 148.82701 7017 ft 212 kts 40°
2026-05-07 06:50 -33.66405 148.83851 7014 ft 212 kts 40°
2026-05-07 06:51 -33.65286 148.84995 7008 ft 211 kts 40°
2026-05-07 06:51 -33.64179 148.86126 7017 ft 211 kts 40°
2026-05-07 06:51 -33.63057 148.87271 7013 ft 212 kts 40°
2026-05-07 06:51 -33.61931 148.88419 7009 ft 212 kts 40°
2026-05-07 06:52 -33.60813 148.89561 7015 ft 211 kts 40°
2026-05-07 06:52 -33.59693 148.90705 7009 ft 210 kts 39°
2026-05-07 06:52 -33.58576 148.91843 7013 ft 211 kts 40°
2026-05-07 06:52 -33.57455 148.92983 7017 ft 212 kts 39°
2026-05-07 06:53 -33.56336 148.94123 7011 ft 211 kts 40°
2026-05-07 06:53 -33.55211 148.95265 7016 ft 212 kts 40°
2026-05-07 06:53 -33.54085 148.96415 7018 ft 213 kts 40°
2026-05-07 06:53 -33.52952 148.97566 7015 ft 214 kts 40°
2026-05-07 06:54 -33.51833 148.98710 7014 ft 214 kts 40°
2026-05-07 06:54 -33.50699 148.99863 7015 ft 214 kts 39°
2026-05-07 06:54 -33.49558 149.01022 7015 ft 214 kts 40°
2026-05-07 06:54 -33.48421 149.02178 7015 ft 214 kts 39°
2026-05-07 06:55 -33.47284 149.03333 7010 ft 214 kts 40°
2026-05-07 06:55 -33.46140 149.04493 7008 ft 215 kts 40°
2026-05-07 06:55 -33.45002 149.05649 7012 ft 215 kts 39°
2026-05-07 06:55 -33.43857 149.06808 7016 ft 216 kts 40°
2026-05-07 06:56 -33.42727 149.07958 7012 ft 216 kts 40°
2026-05-07 06:56 -33.41581 149.09119 7013 ft 216 kts 40°
2026-05-07 06:56 -33.40437 149.10280 7010 ft 215 kts 40°
2026-05-07 06:56 -33.39294 149.11437 7014 ft 215 kts 40°
2026-05-07 06:57 -33.38140 149.12573 7010 ft 215 kts 34°
2026-05-07 06:57 -33.36876 149.13524 7009 ft 214 kts 29°
2026-05-07 06:57 -33.35610 149.14458 7014 ft 214 kts 30°
2026-05-07 06:57 -33.34345 149.15408 7008 ft 214 kts 30°
2026-05-07 06:58 -33.33509 149.16036 7015 ft 214 kts 30°
2026-05-07 06:58 -33.31819 149.17306 7013 ft 215 kts 30°
2026-05-07 06:58 -33.30978 149.17937 7011 ft 215 kts 30°
2026-05-07 06:58 -33.29296 149.19200 7008 ft 214 kts 30°
2026-05-07 06:59 -33.28033 149.20146 7009 ft 214 kts 30°
2026-05-07 06:59 -33.27178 149.20786 7007 ft 214 kts 30°
2026-05-07 06:59 -33.25916 149.21729 7007 ft 214 kts 30°
2026-05-07 06:59 -33.24670 149.22664 7005 ft 213 kts 30°
2026-05-07 07:00 -33.23408 149.23585 7007 ft 213 kts 24°
2026-05-07 07:00 -33.22060 149.24308 7000 ft 212 kts 20°
2026-05-07 07:00 -33.20717 149.25011 7003 ft 210 kts 20°
2026-05-07 07:00 -33.19382 149.25728 7006 ft 211 kts 20°
2026-05-07 07:01 -33.18036 149.26451 6996 ft 211 kts 21°
2026-05-07 07:01 -33.16699 149.27165 7003 ft 210 kts 20°
2026-05-07 07:01 -33.15362 149.27883 6999 ft 211 kts 21°
2026-05-07 07:01 -33.14025 149.28599 6997 ft 210 kts 21°
2026-05-07 07:02 -33.12687 149.29313 7004 ft 211 kts 21°
2026-05-07 07:02 -33.11340 149.30033 7003 ft 213 kts 22°
2026-05-07 07:02 -33.09992 149.30755 7002 ft 212 kts 21°
2026-05-07 07:02 -33.08659 149.31466 7003 ft 212 kts 21°
2026-05-07 07:03 -33.07309 149.32188 7001 ft 212 kts 22°
2026-05-07 07:03 -33.05970 149.32903 7011 ft 210 kts 21°
2026-05-07 07:03 -33.04626 149.33619 7007 ft 213 kts 21°
2026-05-07 07:03 -33.03280 149.34339 7003 ft 211 kts 21°
2026-05-07 07:04 -33.01935 149.35054 7002 ft 213 kts 21°
2026-05-07 07:04 -33.00583 149.35775 7006 ft 212 kts 21°
2026-05-07 07:04 -32.99232 149.36494 7008 ft 213 kts 21°
2026-05-07 07:04 -32.97876 149.37218 7010 ft 214 kts 21°
2026-05-07 07:05 -32.96513 149.37943 7003 ft 214 kts 21°
2026-05-07 07:05 -32.95177 149.38655 7005 ft 211 kts 21°
2026-05-07 07:05 -32.93833 149.39371 7003 ft 212 kts 21°
2026-05-07 07:05 -32.92480 149.40089 7006 ft 214 kts 21°
2026-05-07 07:06 -32.91124 149.40812 6988 ft 213 kts 21°
2026-05-07 07:06 -32.89766 149.41532 7002 ft 214 kts 21°
2026-05-07 07:06 -32.88410 149.42253 7005 ft 214 kts 20°
2026-05-07 07:06 -32.87047 149.42976 7003 ft 215 kts 20°
2026-05-07 07:07 -32.85682 149.43703 7006 ft 215 kts 21°
2026-05-07 07:07 -32.84318 149.44430 7006 ft 215 kts 20°
2026-05-07 07:07 -32.82951 149.45152 7002 ft 215 kts 20°
2026-05-07 07:07 -32.81580 149.45879 7001 ft 215 kts 21°
2026-05-07 07:08 -32.80217 149.46604 6998 ft 214 kts 21°
2026-05-07 07:08 -32.78859 149.47323 7001 ft 214 kts 20°
2026-05-07 07:08 -32.77523 149.48034 6993 ft 212 kts 21°
2026-05-07 07:08 -32.76157 149.48756 6995 ft 211 kts 20°
2026-05-07 07:09 -32.74825 149.49457 6996 ft 213 kts 21°
2026-05-07 07:09 -32.73472 149.50176 6979 ft 213 kts 21°
2026-05-07 07:09 -32.72120 149.50892 7003 ft 213 kts 20°
2026-05-07 07:09 -32.70758 149.51613 6997 ft 214 kts 21°
2026-05-07 07:10 -32.69396 149.52335 7001 ft 214 kts 21°
2026-05-07 07:10 -32.68030 149.53057 7001 ft 214 kts 20°
2026-05-07 07:10 -32.66668 149.53777 7005 ft 214 kts 21°
2026-05-07 07:10 -32.65304 149.54496 7008 ft 215 kts 20°
2026-05-07 07:11 -32.63935 149.55217 7000 ft 214 kts 21°
2026-05-07 07:11 -32.62579 149.55935 7001 ft 213 kts 20°
2026-05-07 07:11 -32.61238 149.56643 6997 ft 213 kts 20°
2026-05-07 07:11 -32.59882 149.57359 6999 ft 213 kts 20°
2026-05-07 07:12 -32.58527 149.58076 6999 ft 213 kts 20°
2026-05-07 07:12 -32.57166 149.58789 7002 ft 214 kts 19°
2026-05-07 07:12 -32.55736 149.59129 6997 ft 207 kts 353°
2026-05-07 07:12 -32.54339 149.58897 6999 ft 200 kts 336°
2026-05-07 07:13 -32.52980 149.58521 7001 ft 201 kts 338°
2026-05-07 07:13 -32.51618 149.58171 7000 ft 200 kts 338°
2026-05-07 07:13 -32.50254 149.57809 7004 ft 201 kts 338°
2026-05-07 07:13 -32.48904 149.57448 7001 ft 202 kts 338°
2026-05-07 07:14 -32.47512 149.57079 7003 ft 202 kts 338°
2026-05-07 07:14 -32.46153 149.56719 6999 ft 203 kts 338°
2026-05-07 07:14 -32.44782 149.56351 7001 ft 202 kts 338°
2026-05-07 07:14 -32.43409 149.55989 6997 ft 201 kts 338°
2026-05-07 07:15 -32.42043 149.55628 7004 ft 202 kts 338°
2026-05-07 07:15 -32.40675 149.55265 7003 ft 201 kts 338°
2026-05-07 07:15 -32.39302 149.54902 7004 ft 202 kts 338°
2026-05-07 07:15 -32.37927 149.54539 7001 ft 202 kts 338°
2026-05-07 07:16 -32.36551 149.54171 6998 ft 202 kts 338°
2026-05-07 07:16 -32.35184 149.53809 7000 ft 201 kts 338°
2026-05-07 07:16 -32.33815 149.53446 6996 ft 201 kts 338°
2026-05-07 07:16 -32.32462 149.53089 6995 ft 201 kts 338°
2026-05-07 07:17 -32.31098 149.52727 6995 ft 201 kts 338°
2026-05-07 07:17 -32.29734 149.52365 6997 ft 201 kts 338°
2026-05-07 07:17 -32.28370 149.52005 6998 ft 201 kts 338°
2026-05-07 07:17 -32.27002 149.51644 7000 ft 201 kts 338°
2026-05-07 07:18 -32.25639 149.51283 6998 ft 201 kts 338°
2026-05-07 07:18 -32.24277 149.50923 7003 ft 201 kts 338°
2026-05-07 07:18 -32.22909 149.50562 7005 ft 201 kts 338°
2026-05-07 07:18 -32.21542 149.50201 7004 ft 201 kts 338°
2026-05-07 07:19 -32.20192 149.49847 7006 ft 201 kts 338°
2026-05-07 07:19 -32.18832 149.49484 7005 ft 201 kts 338°
2026-05-07 07:19 -32.17465 149.49124 7003 ft 202 kts 339°
2026-05-07 07:19 -32.16094 149.48765 7002 ft 201 kts 339°
2026-05-07 07:20 -32.14729 149.48404 7006 ft 201 kts 338°
2026-05-07 07:20 -32.13363 149.48044 7005 ft 201 kts 338°
2026-05-07 07:20 -32.11992 149.47682 7004 ft 202 kts 339°
2026-05-07 07:20 -32.10623 149.47321 7005 ft 202 kts 339°
2026-05-07 07:21 -32.09264 149.46964 7004 ft 202 kts 339°
2026-05-07 07:21 -32.07888 149.46602 7007 ft 202 kts 339°
2026-05-07 07:21 -32.06509 149.46238 7003 ft 202 kts 339°
2026-05-07 07:21 -32.05131 149.45876 7008 ft 202 kts 339°
2026-05-07 07:22 -32.03757 149.45514 7006 ft 203 kts 338°
2026-05-07 07:22 -32.02373 149.45151 7006 ft 203 kts 339°
2026-05-07 07:22 -32.01010 149.44794 7010 ft 204 kts 339°
2026-05-07 07:22 -31.99624 149.44428 7005 ft 203 kts 338°
2026-05-07 07:23 -31.98245 149.44066 7006 ft 203 kts 339°
2026-05-07 07:23 -31.96862 149.43703 7007 ft 204 kts 339°
2026-05-07 07:23 -31.95475 149.43339 7007 ft 204 kts 339°
2026-05-07 07:23 -31.94089 149.42975 7004 ft 205 kts 338°
2026-05-07 07:24 -31.92695 149.42611 7009 ft 204 kts 339°
2026-05-07 07:24 -31.91310 149.42247 7008 ft 204 kts 339°
2026-05-07 07:24 -31.89919 149.41882 7005 ft 205 kts 339°
2026-05-07 07:24 -31.88546 149.41522 7004 ft 204 kts 339°
2026-05-07 07:25 -31.85770 149.40796 7005 ft 204 kts 339°
2026-05-07 07:25 -31.84385 149.40432 7003 ft 204 kts 339°
2026-05-07 07:25 -31.82996 149.40069 7004 ft 204 kts 339°
2026-05-07 07:26 -31.81613 149.39683 6994 ft 200 kts 332°
2026-05-07 07:26 -31.80485 149.38877 6996 ft 188 kts 312°
2026-05-07 07:26 -31.79413 149.37974 7002 ft 190 kts 315°
2026-05-07 07:26 -31.78289 149.37126 7000 ft 192 kts 317°
2026-05-07 07:27 -31.77162 149.36300 6997 ft 190 kts 317°
2026-05-07 07:27 -31.76057 149.35480 6995 ft 190 kts 317°
2026-05-07 07:27 -31.74938 149.34648 6999 ft 190 kts 317°
2026-05-07 07:27 -31.73814 149.33814 6999 ft 191 kts 317°
2026-05-07 07:28 -31.72685 149.32978 6997 ft 192 kts 317°
2026-05-07 07:28 -31.71552 149.32139 6999 ft 193 kts 317°
2026-05-07 07:28 -31.70414 149.31296 6998 ft 193 kts 317°
2026-05-07 07:28 -31.69293 149.30466 6998 ft 193 kts 317°
2026-05-07 07:29 -31.68158 149.29626 7001 ft 193 kts 317°
2026-05-07 07:29 -31.67022 149.28783 6997 ft 193 kts 317°
2026-05-07 07:29 -31.65885 149.27942 6998 ft 194 kts 317°
2026-05-07 07:29 -31.64739 149.27096 7000 ft 194 kts 317°
2026-05-07 07:30 -31.63608 149.26260 7000 ft 195 kts 317°
2026-05-07 07:30 -31.62459 149.25411 7000 ft 195 kts 317°
2026-05-07 07:30 -31.61311 149.24562 7000 ft 195 kts 317°
2026-05-07 07:30 -31.60162 149.23712 6999 ft 195 kts 317°
2026-05-07 07:31 -31.59009 149.22860 6999 ft 195 kts 317°
2026-05-07 07:31 -31.57860 149.22013 6997 ft 195 kts 317°
2026-05-07 07:31 -31.56707 149.21163 6999 ft 195 kts 317°
2026-05-07 07:31 -31.55572 149.20325 6997 ft 195 kts 317°
2026-05-07 07:32 -31.54416 149.19472 7001 ft 196 kts 317°
2026-05-07 07:32 -31.53263 149.18621 6998 ft 196 kts 317°
2026-05-07 07:32 -31.52111 149.17771 7001 ft 195 kts 317°
2026-05-07 07:32 -31.50959 149.16921 7000 ft 195 kts 317°
2026-05-07 07:33 -31.49823 149.16084 7004 ft 196 kts 318°
2026-05-07 07:33 -31.48666 149.15233 7003 ft 196 kts 317°
2026-05-07 07:33 -31.47509 149.14381 7006 ft 196 kts 317°
2026-05-07 07:33 -31.46347 149.13527 7001 ft 197 kts 317°
2026-05-07 07:34 -31.45188 149.12672 7004 ft 196 kts 317°
2026-05-07 07:34 -31.44047 149.11831 7004 ft 197 kts 317°
2026-05-07 07:34 -31.42886 149.10976 6998 ft 197 kts 317°
2026-05-07 07:34 -31.41722 149.10120 7003 ft 198 kts 317°
2026-05-07 07:35 -31.40554 149.09263 7005 ft 199 kts 318°
2026-05-07 07:35 -31.39380 149.08402 7012 ft 199 kts 318°
2026-05-07 07:35 -31.38200 149.07540 7013 ft 200 kts 318°
2026-05-07 07:35 -31.37021 149.06673 7005 ft 198 kts 316°
2026-05-07 07:36 -31.35864 149.05813 6991 ft 199 kts 317°
2026-05-07 07:36 -31.34712 149.04985 6830 ft 191 kts 319°
2026-05-07 07:36 -31.33585 149.04167 6575 ft 188 kts 319°
2026-05-07 07:36 -31.32492 149.03362 6344 ft 183 kts 318°
2026-05-07 07:37 -31.31416 149.02561 6097 ft 182 kts 319°
2026-05-07 07:37 -31.30356 149.01787 5865 ft 182 kts 321°
2026-05-07 07:37 -31.29140 149.01295 5620 ft 189 kts 346°
2026-05-07 07:37 -31.27819 149.01366 5412 ft 189 kts 12°
2026-05-07 07:38 -31.26661 149.01962 5403 ft 176 kts 35°
2026-05-07 07:38 -31.25802 149.02909 5394 ft 165 kts 57°
2026-05-07 07:38 -31.25143 149.03939 5400 ft 158 kts 57°
2026-05-07 07:38 -31.24481 149.04930 5400 ft 152 kts 58°
2026-05-07 07:39 -31.23845 149.05903 5401 ft 149 kts 58°
2026-05-07 07:39 -31.23297 149.06908 5399 ft 141 kts 80°
2026-05-07 07:39 -31.23191 149.08032 5338 ft 141 kts 106°
2026-05-07 07:39 -31.23514 149.09082 5196 ft 137 kts 133°
2026-05-07 07:40 -31.24048 149.10002 5043 ft 136 kts 134°
2026-05-07 07:40 -31.24568 149.10957 4870 ft 141 kts 132°
2026-05-07 07:40 -31.25116 149.11938 4706 ft 148 kts 133°
2026-05-07 07:40 -31.25693 149.12951 4531 ft 151 kts 132°
2026-05-07 07:41 -31.26259 149.13982 4357 ft 153 kts 132°
2026-05-07 07:41 -31.26830 149.15013 4180 ft 148 kts 132°
2026-05-07 07:41 -31.27369 149.15990 4065 ft 134 kts 133°
2026-05-07 07:41 -31.27851 149.16866 3945 ft 123 kts 133°
2026-05-07 07:42 -31.28292 149.17659 3794 ft 111 kts 134°
2026-05-07 07:42 -31.28696 149.18395 3640 ft 105 kts 134°
2026-05-07 07:42 -31.29065 149.19061 3508 ft 91 kts 136°
2026-05-07 07:42 -31.29391 149.19662 3373 ft 86 kts 139°
2026-05-07 07:43 -31.29722 149.20260 3272 ft 90 kts 137°
2026-05-07 07:43 -31.30063 149.20863 3148 ft 88 kts 138°
2026-05-07 07:43 -31.30410 149.21465 3025 ft 91 kts 137°
2026-05-07 07:43 -31.30754 149.22077 2884 ft 86 kts 139°
2026-05-07 07:44 -31.31094 149.22696 2782 ft 95 kts 134°
2026-05-07 07:44 -31.31461 149.23354 2638 ft 98 kts 131°
2026-05-07 07:44 -31.31840 149.24027 2470 ft 100 kts 133°
2026-05-07 07:44 -31.32194 149.24703 2380 ft 95 kts 134°
2026-05-07 07:45 -31.32547 149.25326 2220 ft 88 kts 133°
2026-05-07 07:45 -31.32855 149.25849 2118 ft 67 kts 125°
2026-05-07 07:45 -31.33073 149.26246 2127 ft 50 kts 120°
2026-05-07 07:45 -31.33239 149.26552 2132 ft 39 kts 120°
2026-05-07 07:46 -31.33370 149.26794 2130 ft 21 kts 108°
2026-05-07 07:46 -31.33312 149.26877 2128 ft 15 kts 30°
2026-05-07 07:46 -31.33252 149.26944 2126 ft 3 kts 130°
2026-05-07 07:46 -31.33273 149.26958 2126 ft 0 kts 187°
2026-05-07 07:47 -31.33287 149.26947 2126 ft 0 kts 235°